Location: Newark
(54.0500°N, 12.8333°E)
Time: 09:05:13
(UTC+00:00)

Transit 2A - Visible Passes

Search period start: 29 January 2020 00:00
Search period end: 08 February 2020 00:00
Orbit: 601 x 958 km, 66.7° (Epoch: 28 January)

Date Brightness Start Highest point End Pass type
(mag) Time Alt. Az. Time Alt. Az. Time Alt. Az.
29 Jan 7.0 17:22:02 10° SSE 17:24:59 19° ESE 17:24:59 19° ESE visible
29 Jan 7.2 19:03:25 10° SW 19:05:30 28° SW 19:05:30 28° SW visible
30 Jan 7.3 16:49:05 10° SE 16:51:15 14° ESE 16:52:27 12° E visible
30 Jan 5.7 18:29:17 10° SW 18:32:58 63° SSW 18:32:58 63° SSW visible
31 Jan 5.5 17:55:17 10° SSW 17:59:32 58° SE 18:00:21 48° E visible
31 Jan 7.9 19:38:59 10° W 19:40:52 22° W 19:40:52 22° W visible
01 Feb 6.0 17:21:26 10° S 17:25:30 41° ESE 17:27:39 24° ENE visible
01 Feb 6.7 19:04:32 10° WSW 19:08:11 39° NW 19:08:11 39° NW visible
02 Feb 6.5 16:47:45 10° S 16:51:30 29° ESE 16:54:54 12° ENE visible
02 Feb 6.1 18:30:09 10° WSW 18:34:24 53° NW 18:35:24 43° N visible
02 Feb 8.6 20:15:14 10° WNW 20:15:55 13° WNW 20:15:55 13° WNW visible
03 Feb 5.7 17:55:53 10° SW 18:00:13 71° NW 18:02:34 27° NNE visible
03 Feb 7.9 19:40:38 10° WNW 19:43:05 21° NW 19:43:05 21° NW visible
04 Feb 5.5 17:21:43 10° SW 17:26:04 86° SE 17:29:40 15° NE visible
04 Feb 7.3 19:06:03 10° W 19:09:45 26° NNW 19:10:11 26° NNW visible
05 Feb 5.6 16:47:41 10° SSW 16:51:58 62° SE 16:56:21 10° NE visible
05 Feb 7.1 18:31:30 10° W 18:35:25 31° NNW 18:37:13 23° N visible
05 Feb 8.5 20:16:55 10° NW 20:17:44 13° NW 20:17:44 13° NW visible
06 Feb 6.7 17:57:02 10° WSW 18:01:08 39° NW 18:04:13 17° NNE visible
06 Feb 8.0 19:42:22 10° NW 19:44:44 18° NNW 19:44:44 18° NNW visible
07 Feb 6.3 17:22:38 10° WSW 17:26:52 50° NW 17:31:12 10° NE visible
07 Feb 7.6 19:07:46 10° WNW 19:11:02 20° NNW 19:11:42 19° N visible
